[[{"header":{"parameterUnit":"m.s-1","parameterCategory":2,"la1":30.2991,"la2":30.254,"lo1":-89.0895,"lo2":-89.0444,"dy":0.0017,"dx":0.0017,"nx":28,"ny":28,"refTime":"2024-12-13T03:00:00:Z","depth":"0","parameterNumber":2,"parameterNumberName":"U-component_of_CURRENTS"},"data":[0,0,0,0,0,0,0,0,0,0,0,0,0,0,0,0,0,0,0,0,0,0,0,0,0,0,0,0,0,0,0,0,0,0,0,0,0,0,0,0,0,0,0,0,0,0,0,0,0,0,0,0,0,0,0,0,0,0,0.3412,0.3413,0,0.3487,0.3487,0.3488,0.3507,0.3507,0.3507,0.3507,0.3538,0.3539,0.354,0,0,0,0,0,0,0,0,0,0,0,0,0,0.3315,0.3316,0.3412,0.3414,0.3415,0.3487,0.3487,0.3488,0.3507,0.3507,0.3507,0.3507,0.3538,0.3539,0.354,0,0,0,0,0,0,0,0,0,0,0,0,0,0.3365,0.3316,0.3412,0.3437,0.344,0.3487,0.3487,0.3488,0.3507,0.3507,0.3507,0.3507,0.3538,0.3539,0.354,0.3549,0,0,0.3544,0.3545,0,0,0,0,0,0,0,0,0.3362,0.3368,0.3432,0.3435,0.3439,0.3492,0.3465,0.3508,0.3507,0.3476,0.3507,0.3507,0.3522,0.3525,0.3532,0.3551,0.3552,0.3544,0.3545,0.3546,0.3546,0,0,0,0,0,0,0,0.3359,0.3365,0.3437,0.3433,0.3438,0.3454,0.346,0.3473,0.3494,0.3479,0.3482,0.3498,0.3523,0.3531,0.3533,0.3552,0.3544,0.3545,0.3546,0.3547,0.3626,0.3628,0,0,0,0,0,0,0.3358,0.3362,0.3435,0.344,0.3405,0.3456,0.3463,0.3471,0.3495,0.35,0.3498,0.3498,0.3529,0.3532,0.3534,0.3606,0.3546,0.3547,0.3548,0.3625,0.3627,0.3628,0,0,0,0,0,0,0.3355,0.3363,0.3432,0.3407,0.3417,0.3458,0.3467,0.3472,0.3484,0.351,0.3514,0.3504,0.3529,0.3533,0.3566,0.3605,0.3547,0.3549,0.3624,0.3626,0.3627,0.3711,0,0,0,0,0,0,0.3352,0.3362,0.3364,0.3406,0.3419,0.3473,0.3467,0.3474,0.3496,0.3497,0.3517,0.352,0.3529,0.3564,0.3567,0.3606,0.355,0.3622,0.3624,0.3627,0.3707,0.3716,0.3724,0,0,0,0,0,0.3348,0.3359,0.3363,0.3372,0.3421,0.3474,0.3482,0.3507,0.3496,0.3513,0.3529,0.3519,0.3582,0.3567,0.357,0.361,0.3621,0.3624,0.3627,0.3703,0.3714,0.3723,0,0,0,0,0,0,0.3312,0.3364,0.3369,0.3392,0.3434,0.3479,0.35,0.3507,0.3531,0.3531,0.3537,0.3543,0.3594,0.3581,0.3564,0.3638,0.3599,0.3603,0.3656,0.3666,0.3675,0.3671,0.3551,0,0,0,0,0,0.3306,0.3331,0.338,0.3399,0.3422,0.3455,0.3477,0.3497,0.3528,0.3537,0.3553,0.3571,0.3608,0.3619,0.3647,0.3678,0.3693,0.3704,0.3712,0.372,0.3719,0.3783,0.3797,0.3638,0.3638,0.3638,0,0,0.3297,0.333,0.3342,0.3394,0.3426,0.3473,0.3468,0.3511,0.3548,0.3537,0.3584,0.3606,0.3625,0.368,0.3698,0.3672,0.3778,0.3723,0.373,0.3724,0.3788,0.3803,0.3817,0.364,0.364,0.3639,0,0,0.3309,0.3323,0.3355,0.3395,0.3454,0.3484,0.3496,0.3546,0.3568,0.3615,0.3629,0.367,0.3704,0.3741,0.3759,0.3822,0.3828,0.3827,0.3861,0.3925,0.3939,0.3951,0.4014,0.4031,0.3822,0.3822,0.3822,0,0.3297,0.3341,0.3373,0.3421,0.3458,0.3489,0.3536,0.357,0.3623,0.3651,0.3639,0.3725,0.3738,0.3819,0.3844,0.3844,0.3877,0.3826,0.3938,0.395,0.3961,0.4022,0.404,0.3827,0.3826,0.3826,0.3825,0,0.334,0.3377,0.3403,0.3473,0.3515,0.3563,0.362,0.3657,0.3678,0.3714,0.3791,0.382,0.3868,0.3885,0.3883,0.3974,0.3974,0.3952,0.3915,0.3983,0.4042,0.406,0.3833,0.3831,0.383,0.3829,0,0,0.3308,0.3414,0.342,0.346,0.3547,0.3583,0.3656,0.3732,0.378,0.3826,0.3893,0.3956,0.3967,0.3987,0.4001,0.4044,0.4159,0.4029,0.403,0.4097,0.4311,0.4249,0.4261,0.4163,0.4166,0.4169,0.4329,0,0.3333,0.3415,0.3471,0.3549,0.3594,0.3656,0.372,0.3788,0.3847,0.3919,0.3963,0.4033,0.401,0.4042,0.4089,0.4148,0.4204,0.4117,0.4229,0.4232,0.4174,0.4279,0.4082,0.4203,0.4346,0.4349,0.4351,0,0.3353,0.3406,0.3481,0.3585,0.3611,0.3657,0.376,0.3828,0.3938,0.3993,0.4069,0.4107,0.4199,0.4155,0.4294,0.4244,0.4283,0.4314,0.432,0.4239,0.4201,0.4153,0.4228,0.4138,0.4377,0.4375,0.4373,0,0.3298,0.3413,0.3466,0.3501,0.3621,0.3658,0.3719,0.383,0.3901,0.4038,0.4103,0.4213,0.4274,0.4346,0.441,0.4367,0.4555,0.4504,0.4488,0.4485,0.4325,0.4301,0.4322,0.46,0.4599,0.4599,0.4598,0,0.3297,0.3339,0.3436,0.346,0.3523,0.3617,0.3695,0.3787,0.3919,0.4015,0.4123,0.4219,0.4323,0.4431,0.447,0.4549,0.4614,0.4521,0.453,0.4349,0.4327,0.4242,0.4195,0.4605,0.4603,0.4602,0.4601,0,0.3233,0.3301,0.3362,0.3466,0.3495,0.353,0.3658,0.3725,0.3868,0.4,0.4049,0.4249,0.4398,0.4496,0.4637,0.4624,0.4579,0.4708,0.449,0.4469,0.4316,0.428,0.4182,0.4053,0.4712,0.4711,0.4711,0,0.3214,0.3234,0.3328,0.3347,0.3389,0.3455,0.3508,0.367,0.3754,0.4012,0.4072,0.427,0.4382,0.4583,0.4618,0.4702,0.4574,0.4556,0.4419,0.4306,0.4275,0.4129,0.4016,0.4258,0.4254,0.4251,0.4248,0,0.316,0.3185,0.3226,0.3263,0.3306,0.3364,0.3451,0.351,0.372,0.3842,0.4014,0.4125,0.4344,0.4353,0.4485,0.4505,0.4326,0.4488,0.4427,0.3973,0.3759,0.3638,0.4168,0.4219,0.4222,0.4224,0.4225,0.4227,0.3097,0.3103,0.314,0.3172,0.3216,0.3244,0.3244,0.3364,0.3468,0.3624,0.3837,0.3934,0.4092,0.4238,0.4247,0.4149,0.4136,0.4011,0.4001,0.3884,0.3666,0.4135,0.4152,0.4154,0.4156,0.4158,0.416,0,0.301,0.3026,0.3048,0.3066,0.306,0.3122,0.3187,0.317,0.3222,0.3412,0.3526,0.3638,0.3691,0.3802,0.3822,0.3691,0.3518,0.3595,0.334,0.3269,0.3746,0.3631,0.3464,0.3464,0.3464,0.3464,0.3464,0.3465,0.2961,0.2942,0.2957,0.29,0.2906,0.2848,0.2844,0.2848,0.2926,0.298,0.3034,0.3163,0.3441,0.359,0.3495,0.3399,0.3137,0.2987,0.3012,0.3356,0.3392,0.3427,0.3309,0.3077,0.3077,0.2367,0.2362,0.2358]},{"header":{"parameterUnit":"m.s-1","parameterCategory":2,"la1":30.2991,"la2":30.254,"lo1":-89.0895,"lo2":-89.0444,"dy":0.0017,"dx":0.0017,"nx":28,"ny":28,"refTime":"2024-12-13T03:00:00:Z","depth":"0","parameterNumber":3,"parameterNumberName":"V-component_of_CURRENTS"},"data":[0,0,0,0,0,0,0,0,0,0,0,0,0,0,0,0,0,0,0,0,0,0,0,0,0,0,0,0,0,0,0,0,0,0,0,0,0,0,0,0,0,0,0,0,0,0,0,0,0,0,0,0,0,0,0,0,0,0,-0.0173,-0.0173,0,-0.0252,-0.0253,-0.0254,-0.032,-0.0321,-0.0321,-0.0322,-0.0456,-0.0458,-0.0461,0,0,0,0,0,0,0,0,0,0,0,0,0,-0.0133,-0.0133,-0.0173,-0.0173,-0.0174,-0.0252,-0.0253,-0.0254,-0.032,-0.0321,-0.0322,-0.0322,-0.0455,-0.0458,-0.0462,0,0,0,0,0,0,0,0,0,0,0,0,0,-0.0176,-0.0133,-0.0172,-0.0216,-0.022,-0.0252,-0.0253,-0.0255,-0.032,-0.0321,-0.0322,-0.0323,-0.0453,-0.0458,-0.0462,-0.0472,0,0,-0.0476,-0.0478,0,0,0,0,0,0,0,0,-0.0173,-0.0178,-0.0208,-0.0213,-0.0218,-0.0276,-0.0288,-0.033,-0.032,-0.0283,-0.0322,-0.0323,-0.0399,-0.0408,-0.0422,-0.0479,-0.0484,-0.0476,-0.0479,-0.0481,-0.0482,0,0,0,0,0,0,0,-0.017,-0.0175,-0.0205,-0.0209,-0.0215,-0.025,-0.0256,-0.0297,-0.0337,-0.0287,-0.0291,-0.0298,-0.0402,-0.0418,-0.0426,-0.0486,-0.0476,-0.048,-0.0483,-0.0485,-0.0573,-0.0572,0,0,0,0,0,0,-0.0154,-0.0171,-0.0203,-0.0208,-0.0196,-0.0249,-0.0257,-0.0257,-0.0336,-0.0348,-0.0297,-0.0301,-0.0409,-0.0421,-0.0431,-0.0452,-0.0481,-0.0485,-0.0488,-0.0573,-0.0573,-0.0572,0,0,0,0,0,0,-0.0153,-0.0156,-0.02,-0.0191,-0.0199,-0.0249,-0.0249,-0.0259,-0.0273,-0.0343,-0.0356,-0.0301,-0.0411,-0.0425,-0.0469,-0.0457,-0.0487,-0.0491,-0.0574,-0.0573,-0.0573,-0.0491,0,0,0,0,0,0,-0.0151,-0.0155,-0.0149,-0.0189,-0.0199,-0.021,-0.0248,-0.0259,-0.0275,-0.0281,-0.0351,-0.0364,-0.0412,-0.0461,-0.0473,-0.0464,-0.0495,-0.0574,-0.0573,-0.0573,-0.0494,-0.0487,-0.0482,0,0,0,0,0,-0.0149,-0.0133,-0.0148,-0.0152,-0.0189,-0.0209,-0.0217,-0.0257,-0.0274,-0.0274,-0.0328,-0.0362,-0.0465,-0.0465,-0.0479,-0.0471,-0.0574,-0.0574,-0.0573,-0.0496,-0.0489,-0.0482,0,0,0,0,0,0,-0.0108,-0.0139,-0.0157,-0.015,-0.0175,-0.022,-0.0222,-0.0247,-0.0288,-0.0293,-0.0362,-0.0379,-0.0415,-0.0452,-0.045,-0.0494,-0.0523,-0.0525,-0.0461,-0.0454,-0.0448,-0.0413,-0.0499,0,0,0,0,0,-0.0096,-0.0095,-0.013,-0.0124,-0.0133,-0.0175,-0.0188,-0.0212,-0.0252,-0.027,-0.032,-0.0373,-0.0421,-0.0444,-0.0492,-0.0513,-0.0536,-0.0516,-0.051,-0.0504,-0.0485,-0.0523,-0.0519,-0.057,-0.057,-0.057,0,0,-0.0079,-0.0095,-0.0095,-0.0116,-0.0139,-0.0138,-0.0185,-0.0193,-0.0195,-0.0278,-0.0298,-0.0357,-0.0424,-0.0454,-0.0472,-0.0483,-0.0498,-0.0503,-0.0498,-0.0481,-0.0522,-0.0517,-0.0512,-0.0569,-0.0569,-0.0569,0,0,-0.004,-0.0056,-0.0043,-0.0057,-0.0081,-0.0105,-0.0102,-0.0141,-0.0162,-0.019,-0.0252,-0.0298,-0.0366,-0.041,-0.0442,-0.0428,-0.047,-0.0445,-0.0383,-0.042,-0.0416,-0.0413,-0.0417,-0.0415,-0.0437,-0.0437,-0.0437,0,-0.002,-0.0005,-0.0041,-0.003,-0.0032,-0.0083,-0.0063,-0.009,-0.0139,-0.0149,-0.0185,-0.028,-0.0342,-0.0376,-0.0377,-0.0413,-0.0431,-0.0404,-0.0411,-0.0408,-0.0406,-0.0412,-0.0411,-0.0433,-0.0433,-0.0434,-0.0434,0,0.0028,0.0039,0.005,0.0046,0.0039,0.0049,0.0013,0.0003,-0.0031,-0.0063,-0.0105,-0.0192,-0.0243,-0.0276,-0.0327,-0.034,-0.0355,-0.0403,-0.0424,-0.0396,-0.0404,-0.0404,-0.0427,-0.0429,-0.043,-0.0431,0,0,0.0079,0.0083,0.0088,0.0105,0.0084,0.009,0.009,0.0077,0.0092,0.0023,0.0031,-0.0071,-0.0115,-0.0153,-0.0224,-0.0261,-0.027,-0.0316,-0.032,-0.031,-0.0326,-0.0325,-0.0326,-0.0322,-0.0322,-0.0322,-0.0331,0,0.0128,0.0177,0.0158,0.0205,0.023,0.0191,0.0198,0.0179,0.015,0.0144,0.0054,0.0023,-0.0069,-0.0092,-0.0143,-0.0236,-0.0268,-0.0261,-0.0364,-0.0366,-0.0361,-0.0326,-0.0315,-0.0321,-0.0331,-0.0331,-0.0331,0,0.0185,0.0213,0.0269,0.0297,0.0304,0.0318,0.0337,0.0337,0.0306,0.0284,0.0238,0.0166,0.0105,0.0016,-0.0108,-0.0098,-0.0197,-0.0276,-0.028,-0.0305,-0.0366,-0.0357,-0.0322,-0.0515,-0.0332,-0.0332,-0.0332,0,0.0253,0.0293,0.0345,0.0353,0.0371,0.0389,0.0395,0.0381,0.0409,0.0377,0.0396,0.0295,0.0271,0.0125,-0.0033,-0.0074,-0.0159,-0.0241,-0.0329,-0.033,-0.0352,-0.0354,-0.0506,-0.0329,-0.0328,-0.0328,-0.0328,0,0.0318,0.036,0.0383,0.0414,0.0484,0.0464,0.0531,0.052,0.0538,0.0612,0.0476,0.0522,0.0295,0.0214,0.0034,-0.0116,-0.0106,-0.0296,-0.0331,-0.0321,-0.032,-0.0516,-0.064,-0.0329,-0.0329,-0.0329,-0.0329,0,0.0381,0.0391,0.0459,0.0498,0.0517,0.0567,0.0632,0.0692,0.0681,0.0778,0.0777,0.0708,0.061,0.0387,0.0182,0.0002,-0.028,-0.0235,-0.0187,-0.0217,-0.0503,-0.0621,-0.0807,-0.0881,-0.0338,-0.0338,-0.0338,0,0.0416,0.0458,0.0532,0.059,0.0611,0.0684,0.0749,0.0764,0.0852,0.0922,0.0996,0.0919,0.092,0.0617,0.0276,-0.0022,-0.0244,-0.0226,-0.0323,-0.0494,-0.0653,-0.0752,-0.0809,-0.0313,-0.0313,-0.0313,-0.0313,0,0.0491,0.0513,0.0573,0.0696,0.0777,0.0878,0.0979,0.1071,0.1132,0.1227,0.1358,0.1358,0.1072,0.0786,0.0349,0.0115,-0.0368,-0.0233,-0.0438,-0.0657,-0.0748,-0.0842,-0.0314,-0.0311,-0.0312,-0.0312,-0.0312,-0.0312,0.0547,0.0608,0.0695,0.0815,0.0918,0.1068,0.1175,0.1318,0.1483,0.1654,0.1648,0.1685,0.1223,0.0631,0.0299,-0.0331,-0.036,-0.0544,-0.067,-0.0752,-0.0839,-0.0283,-0.0312,-0.0312,-0.0312,-0.0312,-0.0312,0,0.0629,0.0701,0.0817,0.096,0.1097,0.1132,0.1334,0.1466,0.1699,0.1851,0.1968,0.1743,0.1192,0.0589,-0.0249,-0.0689,-0.0866,-0.0941,-0.11,-0.1135,-0.0659,-0.0674,-0.0749,-0.0749,-0.0748,-0.0748,-0.0748,-0.0748,0.0676,0.0797,0.0858,0.1088,0.1199,0.1388,0.1512,0.172,0.1865,0.205,0.206,0.2026,0.1533,0.0078,-0.0906,-0.1132,-0.1449,-0.1531,-0.1674,-0.1383,-0.1356,-0.1331,-0.1374,-0.1595,-0.1596,-0.2087,-0.2092,-0.2096]}],[{"header":{"parameterUnit":"m.s-1","parameterCategory":2,"la1":30.2991,"la2":30.254,"lo1":-89.0895,"lo2":-89.0444,"dy":0.0017,"dx":0.0017,"nx":28,"ny":28,"refTime":"2024-12-13T03:00:00:Z","depth":"2","parameterNumber":2,"parameterNumberName":"U-component_of_CURRENTS"},"data":[0,0,0,0,0,0,0,0,0,0,0,0,0,0,0,0,0,0,0,0,0,0,0,0,0,0,0,0,0,0,0,0,0,0,0,0,0,0,0,0,0,0,0,0,0,0,0,0,0,0,0,0,0,0,0,0,0,0,0.2947,0.2948,0,0.299,0.2991,0.2991,0.3022,0.3023,0.3024,0.3024,0.3094,0.3095,0.3097,0,0,0,0,0,0,0,0,0,0,0,0,0,0.2862,0.2863,0.2947,0.2948,0.2949,0.299,0.2991,0.2991,0.3022,0.3023,0.3024,0.3024,0.3094,0.3095,0.3097,0,0,0,0,0,0,0,0,0,0,0,0,0,0.2898,0.2864,0.2947,0.2973,0.2976,0.299,0.2991,0.2991,0.3022,0.3023,0.3024,0.3025,0.3093,0.3095,0.3097,0.3089,0,0,0.3103,0.3103,0,0,0,0,0,0,0,0,0.2896,0.29,0.2968,0.2971,0.2974,0.3006,0.2987,0.3027,0.3022,0.3,0.3024,0.3025,0.3069,0.3073,0.3073,0.3092,0.3095,0.3103,0.3104,0.3105,0.3105,0,0,0,0,0,0,0,0.2893,0.2898,0.296,0.2969,0.2973,0.2972,0.2978,0.2994,0.3026,0.3002,0.3005,0.3017,0.307,0.3071,0.3075,0.3096,0.3103,0.3104,0.3106,0.3106,0.319,0.3191,0,0,0,0,0,0,0.2897,0.2896,0.2959,0.2962,0.2941,0.2973,0.298,0.2991,0.3025,0.3032,0.3016,0.3018,0.3067,0.3072,0.3077,0.315,0.3105,0.3107,0.3108,0.3189,0.319,0.3192,0,0,0,0,0,0,0.2895,0.2902,0.2957,0.2933,0.2941,0.2974,0.2987,0.2992,0.3015,0.3036,0.3043,0.3037,0.3068,0.3075,0.312,0.315,0.3107,0.3109,0.3188,0.3189,0.3191,0.3245,0,0,0,0,0,0,0.2892,0.2901,0.291,0.2933,0.2942,0.2982,0.2986,0.2992,0.3021,0.3025,0.3057,0.3063,0.3069,0.3117,0.3122,0.3152,0.3111,0.3186,0.3189,0.319,0.3242,0.3249,0.3254,0,0,0,0,0,0.2889,0.2904,0.291,0.2918,0.2955,0.2984,0.2988,0.3012,0.3022,0.3035,0.3064,0.3063,0.3133,0.312,0.3125,0.3157,0.3185,0.3188,0.319,0.3239,0.3247,0.3254,0,0,0,0,0,0,0.2871,0.2909,0.2917,0.2943,0.2968,0.2991,0.301,0.3022,0.3052,0.3064,0.3079,0.3087,0.314,0.3137,0.3121,0.3185,0.3158,0.3162,0.3194,0.3201,0.3207,0.3233,0.3112,0,0,0,0,0,0.2871,0.2893,0.2925,0.2945,0.2964,0.2988,0.3004,0.302,0.305,0.3064,0.3088,0.3115,0.3148,0.3167,0.319,0.3222,0.3239,0.3245,0.3251,0.3256,0.328,0.3331,0.3345,0.32,0.32,0.32,0,0,0.2867,0.2893,0.2904,0.2943,0.2966,0.2998,0.3,0.3035,0.3067,0.3067,0.3122,0.3141,0.3162,0.3207,0.3229,0.3212,0.3303,0.3259,0.3263,0.3286,0.3335,0.335,0.3363,0.3201,0.3201,0.3201,0,0,0.2876,0.29,0.2924,0.2951,0.2995,0.3014,0.303,0.3066,0.3093,0.314,0.3155,0.3197,0.3235,0.3263,0.328,0.3331,0.3337,0.3331,0.3383,0.3432,0.3445,0.3456,0.3487,0.35,0.333,0.333,0.333,0,0.2869,0.2905,0.2934,0.297,0.2998,0.3027,0.306,0.3092,0.3137,0.3171,0.3169,0.3255,0.3267,0.3337,0.3357,0.3349,0.3371,0.3354,0.3441,0.3453,0.3464,0.3493,0.3507,0.3333,0.3333,0.3333,0.3332,0,0.2895,0.293,0.2952,0.3006,0.304,0.3072,0.3124,0.3165,0.32,0.3231,0.3312,0.3336,0.3389,0.3394,0.3397,0.3479,0.3468,0.3446,0.3426,0.3483,0.3508,0.3522,0.3337,0.3336,0.3335,0.3335,0,0,0.2868,0.295,0.2962,0.299,0.3062,0.3089,0.3163,0.3231,0.3287,0.3337,0.341,0.3469,0.3488,0.351,0.3515,0.3557,0.3644,0.3541,0.3543,0.3577,0.3751,0.3691,0.3701,0.3642,0.3645,0.3647,0.3734,0,0.288,0.2943,0.2988,0.3049,0.3083,0.3144,0.3204,0.3274,0.3341,0.3418,0.3472,0.354,0.353,0.3563,0.3609,0.3643,0.3687,0.3622,0.3687,0.3689,0.3634,0.3717,0.3424,0.3473,0.3748,0.375,0.3752,0,0.2889,0.2934,0.2988,0.3071,0.3094,0.3135,0.3245,0.3305,0.3425,0.3483,0.3573,0.3617,0.371,0.3678,0.3788,0.375,0.3766,0.3781,0.3783,0.3726,0.3658,0.3463,0.3489,0.3776,0.3774,0.3772,0.377,0,0.2847,0.2934,0.2973,0.3001,0.3097,0.3142,0.3203,0.3322,0.3393,0.3535,0.36,0.371,0.3773,0.3829,0.3873,0.3844,0.3977,0.3928,0.389,0.3884,0.3648,0.3617,0.4008,0.4008,0.4008,0.4008,0.4008,0,0.2833,0.2867,0.2955,0.2977,0.3032,0.3116,0.3195,0.3288,0.3423,0.3502,0.3625,0.3708,0.3819,0.3902,0.392,0.3963,0.4018,0.3932,0.3919,0.3656,0.3626,0.3894,0.388,0.4011,0.401,0.401,0.4009,0,0.2775,0.283,0.2871,0.2972,0.3008,0.3046,0.318,0.3243,0.3385,0.3499,0.3551,0.3741,0.3857,0.3942,0.4042,0.4018,0.4059,0.4049,0.3732,0.3681,0.3919,0.3906,0.4028,0.4027,0.4026,0.4025,0.4025,0,0.2755,0.2764,0.2851,0.2872,0.2915,0.299,0.3044,0.3203,0.3278,0.3498,0.3543,0.3728,0.3814,0.396,0.3976,0.4018,0.4064,0.3748,0.3642,0.3954,0.3929,0.3918,0.3906,0.3339,0.3333,0.3328,0.3324,0,0.2694,0.271,0.2744,0.2797,0.2844,0.2895,0.2992,0.3042,0.3219,0.3323,0.3462,0.3561,0.3738,0.3676,0.3764,0.3739,0.3723,0.3649,0.4069,0.3388,0.3314,0.3286,0.3296,0.3279,0.3283,0.3287,0.3289,0.3291,0.2633,0.2631,0.2667,0.2706,0.2753,0.2777,0.2779,0.2882,0.2966,0.308,0.3265,0.3315,0.3413,0.3412,0.3337,0.3295,0.3545,0.3372,0.3384,0.3401,0.3314,0.3245,0.3179,0.3182,0.3186,0.3189,0.3191,0,0.2546,0.2556,0.2581,0.2602,0.2592,0.2669,0.2721,0.2687,0.2708,0.2858,0.2951,0.2792,0.2794,0.2881,0.2763,0.2797,0.273,0.2672,0.254,0.259,0.2634,0.2501,0.2153,0.2149,0.2146,0.2142,0,0,0.2492,0.2472,0.2481,0.2425,0.2446,0.2395,0.2386,0.2365,0.242,0.2407,0.2431,0.2674,0.2808,0.2431,0.2413,0.2251,0.2389,0.217,0.3014,0.291,0.2947,0.3067,0.2926,0,0,0,0,0]},{"header":{"parameterUnit":"m.s-1","parameterCategory":2,"la1":30.2991,"la2":30.254,"lo1":-89.0895,"lo2":-89.0444,"dy":0.0017,"dx":0.0017,"nx":28,"ny":28,"refTime":"2024-12-13T03:00:00:Z","depth":"2","parameterNumber":3,"parameterNumberName":"V-component_of_CURRENTS"},"data":[0,0,0,0,0,0,0,0,0,0,0,0,0,0,0,0,0,0,0,0,0,0,0,0,0,0,0,0,0,0,0,0,0,0,0,0,0,0,0,0,0,0,0,0,0,0,0,0,0,0,0,0,0,0,0,0,0,0,0.0064,0.0064,0,0.0011,0.001,0.001,-0.0038,-0.0038,-0.0039,-0.0039,-0.0137,-0.0139,-0.0141,0,0,0,0,0,0,0,0,0,0,0,0,0,0.0089,0.0089,0.0064,0.0064,0.0063,0.0011,0.001,0.0009,-0.0038,-0.0038,-0.0039,-0.0039,-0.0136,-0.0139,-0.0142,0,0,0,0,0,0,0,0,0,0,0,0,0,0.006,0.0089,0.0064,0.0034,0.0031,0.0011,0.001,0.0009,-0.0038,-0.0038,-0.0039,-0.004,-0.0135,-0.0139,-0.0142,-0.0149,0,0,-0.0152,-0.0154,0,0,0,0,0,0,0,0,0.0062,0.0059,0.0039,0.0036,0.0033,-0.0006,-0.0017,-0.0046,-0.0037,-0.0013,-0.0039,-0.004,-0.0096,-0.0103,-0.0113,-0.0154,-0.0158,-0.0152,-0.0154,-0.0156,-0.0157,0,0,0,0,0,0,0,0.0064,0.0061,0.0042,0.0039,0.0035,0.0011,0.0007,-0.0023,-0.0052,-0.0015,-0.0018,-0.0022,-0.0098,-0.0109,-0.0115,-0.016,-0.0152,-0.0155,-0.0157,-0.0159,-0.021,-0.021,0,0,0,0,0,0,0.0076,0.0063,0.0043,0.004,0.0048,0.0012,0.0006,0.0006,-0.0051,-0.0059,-0.0021,-0.0024,-0.0103,-0.0111,-0.0119,-0.0119,-0.0156,-0.0159,-0.0161,-0.0211,-0.021,-0.0209,0,0,0,0,0,0,0.0077,0.0075,0.0046,0.0051,0.0046,0.0012,0.0012,0.0005,-0.0006,-0.0055,-0.0065,-0.0025,-0.0104,-0.0114,-0.0138,-0.0123,-0.016,-0.0163,-0.0211,-0.0211,-0.021,-0.0126,0,0,0,0,0,0,0.0078,0.0076,0.0079,0.0052,0.0046,0.0045,0.0012,0.0005,-0.0007,-0.0011,-0.0062,-0.0071,-0.0105,-0.0133,-0.0141,-0.0129,-0.0166,-0.0212,-0.0211,-0.021,-0.013,-0.0122,-0.0116,0,0,0,0,0,0.0079,0.0094,0.0079,0.0077,0.0052,0.0046,0.0041,0.0013,-0.0006,-0.0002,-0.0038,-0.007,-0.0132,-0.0135,-0.0145,-0.0133,-0.0213,-0.0211,-0.021,-0.0133,-0.0124,-0.0116,0,0,0,0,0,0,0.0107,0.0089,0.0073,0.0081,0.0067,0.0038,0.0039,0.0019,-0.0007,-0.0014,-0.0063,-0.0075,-0.0091,-0.0123,-0.0125,-0.0145,-0.0177,-0.0178,-0.0115,-0.0107,-0.01,-0.0092,-0.0169,0,0,0,0,0,0.0115,0.012,0.0098,0.0104,0.0099,0.0068,0.0061,0.0044,0.0018,0.0006,-0.003,-0.0067,-0.0093,-0.0108,-0.0138,-0.0148,-0.0186,-0.0147,-0.014,-0.0134,-0.0134,-0.0179,-0.0176,-0.0205,-0.0205,-0.0205,0,0,0.0127,0.0119,0.0121,0.011,0.0095,0.0104,0.0062,0.0059,0.0064,-0.0,-0.0007,-0.0047,-0.0091,-0.0101,-0.0111,-0.0126,-0.0143,-0.0133,-0.0127,-0.0131,-0.0177,-0.0175,-0.0172,-0.0204,-0.0204,-0.0204,0,0,0.0164,0.0147,0.0166,0.0161,0.0147,0.013,0.0133,0.0106,0.0091,0.0078,0.0036,0.0006,-0.0035,-0.0062,-0.008,-0.0056,-0.0108,-0.0063,-0.0021,-0.0064,-0.0062,-0.0061,-0.009,-0.0092,-0.0058,-0.0058,-0.0057,0,0.0179,0.0201,0.0171,0.019,0.0195,0.0149,0.0175,0.0155,0.0124,0.0116,0.0086,0.0026,-0.0017,-0.0026,-0.002,-0.0041,-0.007,-0.0045,-0.0055,-0.0054,-0.0055,-0.0085,-0.0089,-0.0053,-0.0054,-0.0054,-0.0055,0,0.0233,0.0248,0.0261,0.027,0.0269,0.0284,0.0257,0.025,0.0219,0.0194,0.0168,0.0106,0.0072,0.0054,0.002,0.0008,-0.0013,-0.0041,-0.0073,-0.0047,-0.0081,-0.0086,-0.0047,-0.0049,-0.005,-0.0051,0,0,0.0276,0.0297,0.03,0.0323,0.0315,0.0325,0.0331,0.0328,0.0338,0.0282,0.0287,0.0221,0.0177,0.0152,0.0105,0.0061,0.0032,0.0014,0.001,-0.001,-0.0052,-0.0074,-0.0083,0.0002,0.0001,0.0001,-0.0069,0,0.0329,0.0389,0.038,0.0435,0.0465,0.0432,0.0447,0.0432,0.0403,0.0393,0.0315,0.0296,0.022,0.0205,0.015,0.0067,0.002,0.0054,-0.0079,-0.0082,-0.0102,-0.0089,-0.0058,-0.0119,-0.0074,-0.0075,-0.0076,0,0.0388,0.0423,0.0488,0.0528,0.0537,0.0556,0.0574,0.0581,0.0547,0.0524,0.0477,0.0413,0.035,0.0275,0.0136,0.0163,0.0061,-0.0017,-0.0022,-0.0078,-0.0115,-0.0142,-0.0131,-0.0085,-0.0085,-0.0084,-0.0083,0,0.0443,0.0499,0.0557,0.0571,0.0603,0.0621,0.0632,0.0617,0.0644,0.0604,0.0612,0.0514,0.048,0.0334,0.0166,0.0152,0.0007,-0.0031,-0.0149,-0.0151,-0.0171,-0.0173,-0.0142,-0.0142,-0.0141,-0.0141,-0.0141,0,0.0509,0.0556,0.0588,0.062,0.0693,0.0683,0.0749,0.0738,0.0749,0.0799,0.0683,0.0694,0.049,0.0381,0.0207,0.0023,0.0037,-0.0141,-0.0173,-0.0139,-0.0138,-0.015,-0.015,-0.0144,-0.0143,-0.0143,-0.0142,0,0.0562,0.0581,0.0654,0.0701,0.0721,0.0769,0.0839,0.0888,0.0877,0.0937,0.0931,0.084,0.0697,0.0484,0.026,0.0097,-0.0092,-0.0167,-0.0106,-0.0131,-0.0233,-0.0228,-0.0301,-0.0302,-0.0303,-0.0304,-0.0305,0,0.0596,0.0638,0.0715,0.0765,0.0788,0.0863,0.0922,0.0949,0.1013,0.1033,0.1073,0.0956,0.0895,0.0557,0.025,-0.0047,-0.0094,-0.0222,-0.0259,-0.0227,-0.0251,-0.0244,-0.0237,-0.0245,-0.0245,-0.0246,-0.0246,0,0.0661,0.0682,0.0739,0.0844,0.0915,0.1016,0.11,0.1174,0.1217,0.1262,0.1295,0.1242,0.0936,0.0641,0.023,0.0025,-0.0174,-0.0237,-0.022,-0.0209,-0.018,-0.0202,-0.0196,-0.0248,-0.0248,-0.0248,-0.0247,-0.0247,0.0703,0.0755,0.0827,0.0928,0.102,0.1142,0.1232,0.1331,0.1438,0.1508,0.1461,0.139,0.1063,0.0541,0.0183,-0.0194,-0.018,-0.0318,-0.0315,-0.0312,-0.0292,-0.0267,-0.0347,-0.0347,-0.0348,-0.0348,-0.0348,0,0.0757,0.0814,0.0909,0.1026,0.1134,0.1179,0.1337,0.1423,0.1551,0.1615,0.1634,0.1317,0.0984,0.06,0.0047,-0.0284,-0.0308,-0.0393,-0.0346,-0.0341,-0.0337,-0.0318,-0.0381,-0.0382,-0.0383,-0.0384,0,0,0.0785,0.0876,0.0922,0.1094,0.1185,0.1336,0.143,0.1548,0.1627,0.1675,0.1646,0.1576,0.1109,0.0707,0.0255,-0.0064,-0.0129,-0.013,-0.0068,0.0046,0.0054,-0.0258,-0.0218,0,0,0,0,0]}],[{"header":{"parameterUnit":"m.s-1","parameterCategory":2,"la1":30.2991,"la2":30.254,"lo1":-89.0895,"lo2":-89.0444,"dy":0.0017,"dx":0.0017,"nx":28,"ny":28,"refTime":"2024-12-13T03:00:00:Z","depth":"4","parameterNumber":2,"parameterNumberName":"U-component_of_CURRENTS"},"data":[0,0,0,0,0,0,0,0,0,0,0,0,0,0,0,0,0,0,0,0,0,0,0,0,0,0,0,0,0,0,0,0,0,0,0,0,0,0,0,0,0,0,0,0,0,0,0,0,0,0,0,0,0,0,0,0,0,0,0.1866,0.1867,0,0.1932,0.1932,0.1933,0.1988,0.1989,0.199,0.1991,0.205,0.2051,0.2052,0,0,0,0,0,0,0,0,0,0,0,0,0,0.1769,0.177,0.1866,0.1867,0.1868,0.1932,0.1932,0.1933,0.1988,0.1989,0.199,0.1991,0.205,0.2051,0.2052,0,0,0,0,0,0,0,0,0,0,0,0,0,0.1818,0.1771,0.1866,0.1905,0.1909,0.1932,0.1932,0.1933,0.1988,0.1989,0.1991,0.1992,0.2049,0.2051,0.2052,0.2036,0,0,0.2056,0.2056,0,0,0,0,0,0,0,0,0.1815,0.1822,0.1898,0.1902,0.1907,0.1955,0.192,0.1968,0.1988,0.1956,0.1991,0.1992,0.2018,0.2022,0.2029,0.2039,0.2041,0.2056,0.2057,0.2057,0.2057,0,0,0,0,0,0,0,0.1812,0.1819,0.189,0.1899,0.1905,0.1912,0.1921,0.1929,0.1978,0.1959,0.1964,0.1974,0.202,0.2027,0.2031,0.2042,0.2056,0.2057,0.2058,0.2058,0.2158,0.216,0,0,0,0,0,0,0.1808,0.1816,0.1888,0.1892,0.1866,0.1913,0.1923,0.1937,0.1978,0.1986,0.1973,0.1976,0.2025,0.2029,0.2033,0.2119,0.2057,0.2058,0.2059,0.2156,0.2158,0.216,0,0,0,0,0,0,0.1806,0.1814,0.1885,0.1857,0.1867,0.1914,0.1929,0.1937,0.1985,0.1989,0.1997,0.2017,0.2026,0.2031,0.2075,0.2118,0.2059,0.206,0.2154,0.2157,0.2159,0.2226,0,0,0,0,0,0,0.1803,0.1813,0.1839,0.1857,0.1868,0.1923,0.1929,0.1938,0.1988,0.1994,0.2029,0.2033,0.2027,0.2073,0.2076,0.2119,0.2061,0.2151,0.2155,0.2158,0.2221,0.2231,0.2239,0,0,0,0,0,0.1799,0.182,0.184,0.185,0.1897,0.1924,0.1931,0.1966,0.199,0.2014,0.2041,0.2034,0.2098,0.2075,0.2079,0.2123,0.215,0.2154,0.2158,0.2218,0.2229,0.2239,0,0,0,0,0,0,0.1792,0.1828,0.185,0.1884,0.1916,0.1935,0.1966,0.1989,0.2029,0.2049,0.2051,0.2057,0.2114,0.2108,0.2083,0.2163,0.2126,0.2131,0.217,0.2181,0.2189,0.2193,0.2062,0,0,0,0,0,0.1802,0.1832,0.1863,0.1896,0.1915,0.195,0.1973,0.2,0.2029,0.2051,0.2073,0.2101,0.2127,0.2147,0.2164,0.2202,0.2207,0.2236,0.2245,0.2252,0.2259,0.23,0.2313,0.2174,0.2174,0.2174,0,0,0.1808,0.1834,0.1853,0.1898,0.1928,0.1957,0.1968,0.2017,0.2051,0.2048,0.2111,0.2133,0.2145,0.2192,0.2217,0.2197,0.2297,0.2257,0.2263,0.2266,0.2306,0.2319,0.2331,0.2177,0.2177,0.2176,0,0,0.1818,0.1862,0.1886,0.1917,0.1972,0.1991,0.2015,0.2059,0.2095,0.2147,0.2161,0.221,0.2245,0.2264,0.2276,0.2343,0.2342,0.2359,0.2407,0.2447,0.2459,0.2469,0.2502,0.2514,0.2363,0.2363,0.2363,0,0.1827,0.1862,0.1898,0.1928,0.1961,0.201,0.2043,0.2081,0.2137,0.2171,0.218,0.2265,0.2278,0.2335,0.2364,0.2363,0.2385,0.2364,0.2458,0.2468,0.2477,0.2508,0.2521,0.2367,0.2367,0.2366,0.2366,0,0.1844,0.1887,0.1907,0.1962,0.2,0.2042,0.2093,0.2148,0.22,0.2233,0.2318,0.2344,0.2396,0.2413,0.2411,0.249,0.2486,0.2464,0.2429,0.2495,0.2524,0.2536,0.2372,0.2371,0.237,0.2369,0,0,0.1816,0.1901,0.1912,0.1948,0.2028,0.2055,0.2129,0.2197,0.2254,0.232,0.239,0.2451,0.2485,0.2501,0.2518,0.2555,0.2643,0.2548,0.2548,0.2576,0.2741,0.2583,0.2581,0.2644,0.2647,0.2649,0.2738,0,0.1822,0.1878,0.1924,0.1989,0.2023,0.2099,0.2155,0.2231,0.2302,0.2381,0.244,0.2511,0.2513,0.2558,0.26,0.2637,0.2678,0.2621,0.2676,0.2678,0.2525,0.259,0.2656,0.2747,0.275,0.2752,0.2753,0,0.1814,0.1858,0.1919,0.2008,0.2032,0.2084,0.2199,0.2258,0.2374,0.2433,0.2525,0.2575,0.2668,0.2648,0.2753,0.2724,0.2746,0.276,0.2763,0.2598,0.2542,0.2665,0.2775,0.2773,0.2772,0.277,0.2769,0,0.1762,0.185,0.1903,0.1936,0.2041,0.21,0.2167,0.2282,0.2352,0.2484,0.2557,0.2654,0.2733,0.2779,0.2836,0.281,0.2931,0.2889,0.2764,0.2754,0.2839,0.2827,0.2953,0.2952,0.2952,0.2952,0.2952,0,0.173,0.1774,0.1892,0.192,0.1993,0.2083,0.2178,0.2261,0.2395,0.2471,0.259,0.2666,0.2775,0.2858,0.2874,0.2865,0.2969,0.2784,0.2768,0.2867,0.2857,0.2848,0.2835,0.2955,0.2955,0.2954,0.2953,0,0.1654,0.1733,0.18,0.1926,0.1971,0.2028,0.2182,0.2244,0.2388,0.25,0.2554,0.2718,0.2815,0.29,0.2982,0.2905,0.291,0.2878,0.3001,0.2988,0.2695,0.2685,0.2734,0.2729,0.2725,0.2721,0.2718,0,0.1614,0.1644,0.1789,0.1833,0.1898,0.2002,0.2065,0.2222,0.2289,0.2504,0.254,0.2709,0.2793,0.279,0.2882,0.2902,0.2867,0.2844,0.2741,0.2695,0.2675,0.2671,0.2666,0.2712,0.2711,0.271,0.2709,0,0.1536,0.1609,0.1666,0.1761,0.1842,0.1911,0.2021,0.2059,0.223,0.2392,0.2465,0.2524,0.2632,0.2686,0.2733,0.2736,0.2838,0.28,0.2807,0.271,0.2669,0.2652,0.2652,0.2695,0.2697,0.2698,0.2699,0,0.1484,0.1505,0.1598,0.1664,0.1758,0.179,0.1862,0.1939,0.2026,0.2255,0.2275,0.2449,0.2602,0.2604,0.2645,0.2642,0.2589,0.248,0.2503,0.252,0.2407,0.2321,0.2235,0,0,0,0,0,0.1421,0.1433,0.149,0.1551,0.1636,0.169,0.1814,0.189,0.206,0.2054,0.2157,0.2241,0.2311,0.2407,0.2361,0.2554,0.2601,0.2488,0.2487,0.2616,0.2633,0.2519,0,0,0,0,0,0,0.1377,0.1429,0.1449,0.1442,0.1461,0.1534,0.1607,0.1721,0.1725,0.1909,0.1963,0.2102,0.221,0.2316,0.2318,0.2345,0.2296,0.26,0.2594,0.2607,0.2622,0.2635,0.2524,0,0,0,0,0]},{"header":{"parameterUnit":"m.s-1","parameterCategory":2,"la1":30.2991,"la2":30.254,"lo1":-89.0895,"lo2":-89.0444,"dy":0.0017,"dx":0.0017,"nx":28,"ny":28,"refTime":"2024-12-13T03:00:00:Z","depth":"4","parameterNumber":3,"parameterNumberName":"V-component_of_CURRENTS"},"data":[0,0,0,0,0,0,0,0,0,0,0,0,0,0,0,0,0,0,0,0,0,0,0,0,0,0,0,0,0,0,0,0,0,0,0,0,0,0,0,0,0,0,0,0,0,0,0,0,0,0,0,0,0,0,0,0,0,0,0.0124,0.0124,0,0.0096,0.0095,0.0095,0.0075,0.0075,0.0075,0.0075,0.0031,0.003,0.0029,0,0,0,0,0,0,0,0,0,0,0,0,0,0.0133,0.0133,0.0124,0.0124,0.0124,0.0096,0.0095,0.0095,0.0075,0.0075,0.0075,0.0075,0.0031,0.003,0.0029,0,0,0,0,0,0,0,0,0,0,0,0,0,0.0119,0.0133,0.0124,0.0111,0.011,0.0096,0.0095,0.0095,0.0075,0.0075,0.0075,0.0075,0.0032,0.003,0.0028,0.002,0,0,0.0023,0.0023,0,0,0,0,0,0,0,0,0.012,0.0118,0.0113,0.0112,0.011,0.0089,0.0082,0.0069,0.0075,0.0087,0.0075,0.0075,0.005,0.0047,0.004,0.0018,0.0017,0.0023,0.0022,0.0022,0.0021,0,0,0,0,0,0,0,0.0121,0.0119,0.0112,0.0113,0.0111,0.0097,0.0095,0.008,0.0069,0.0086,0.0085,0.0083,0.0049,0.0042,0.0039,0.0016,0.0023,0.0022,0.0021,0.002,-0.0007,-0.0007,0,0,0,0,0,0,0.0128,0.0121,0.0113,0.0111,0.0116,0.0097,0.0095,0.0096,0.0069,0.0065,0.0083,0.0082,0.0045,0.0041,0.0038,0.0046,0.0022,0.002,0.0019,-0.0008,-0.0007,-0.0007,0,0,0,0,0,0,0.0128,0.0127,0.0114,0.0116,0.0113,0.0097,0.0098,0.0095,0.0092,0.0067,0.0063,0.0084,0.0045,0.004,0.0034,0.0044,0.0019,0.0018,-0.0008,-0.0008,-0.0007,0.0051,0,0,0,0,0,0,0.0128,0.0128,0.0132,0.0116,0.0113,0.0115,0.0098,0.0095,0.0092,0.009,0.0066,0.0062,0.0044,0.0037,0.0032,0.0041,0.0016,-0.0008,-0.0008,-0.0007,0.0049,0.0054,0.0057,0,0,0,0,0,0.0129,0.0141,0.0132,0.0131,0.0119,0.0116,0.0114,0.0101,0.0092,0.0096,0.0081,0.0063,0.0036,0.0036,0.0031,0.0039,-0.0008,-0.0008,-0.0007,0.0047,0.0053,0.0057,0,0,0,0,0,0,0.0147,0.0139,0.013,0.0138,0.013,0.0113,0.0117,0.0105,0.0096,0.0095,0.0069,0.0064,0.0061,0.0041,0.0041,0.0031,0.001,0.0009,0.0053,0.0058,0.0062,0.0074,0.0015,0,0,0,0,0,0.0152,0.0159,0.0146,0.0152,0.015,0.0133,0.013,0.0121,0.011,0.0106,0.0089,0.007,0.0059,0.0052,0.0037,0.0033,-0.0001,0.0033,0.0038,0.0041,0.0047,0.0003,0.0004,-0.0005,-0.0005,-0.0005,0,0,0.0161,0.0157,0.0161,0.0157,0.0148,0.0159,0.0131,0.0132,0.0141,0.0103,0.0109,0.0085,0.0061,0.0059,0.0055,0.0045,0.0025,0.0042,0.0046,0.0049,0.0004,0.0005,0.0006,-0.0005,-0.0005,-0.0005,0,0,0.0188,0.0179,0.0195,0.0194,0.0188,0.0179,0.0182,0.0168,0.0162,0.0162,0.0137,0.0121,0.0103,0.0087,0.0077,0.0094,0.005,0.0087,0.0119,0.0077,0.0077,0.0077,0.0033,0.0029,0.0089,0.0089,0.0089,0,0.0198,0.0218,0.0199,0.0217,0.0223,0.0193,0.0215,0.0205,0.0191,0.0189,0.0172,0.014,0.0117,0.0115,0.012,0.0104,0.0071,0.0104,0.0083,0.0082,0.0081,0.0036,0.003,0.0092,0.0091,0.0091,0.0091,0,0.0239,0.0255,0.0266,0.0279,0.0281,0.0295,0.0281,0.028,0.0264,0.025,0.0238,0.0201,0.0182,0.0169,0.0151,0.0137,0.0112,0.0094,0.0072,0.0086,0.0037,0.003,0.0096,0.0095,0.0094,0.0093,0,0,0.0265,0.0291,0.0295,0.0317,0.0317,0.0327,0.0339,0.0341,0.0352,0.0319,0.0325,0.0291,0.0259,0.0245,0.0212,0.0173,0.0134,0.0135,0.0132,0.0096,0.0036,0.0022,0.0013,0.011,0.0109,0.0108,0.0004,0,0.0304,0.0355,0.0354,0.0403,0.0428,0.0411,0.0428,0.0422,0.0405,0.04,0.0348,0.034,0.0292,0.0284,0.0237,0.0163,0.0118,0.0163,0.0024,0.002,0.001,0.0006,0.0106,-0.0001,-0.0003,-0.0004,-0.0005,0,0.0346,0.0377,0.0432,0.0473,0.0482,0.0504,0.0524,0.0535,0.0512,0.0496,0.0464,0.0422,0.0371,0.0325,0.0196,0.0226,0.0139,0.0071,0.0065,0.0028,-0.0006,-0.0019,-0.0018,-0.0017,-0.0016,-0.0015,-0.0014,0,0.0378,0.0431,0.0481,0.0495,0.0531,0.0554,0.057,0.0564,0.0585,0.0555,0.0559,0.0482,0.0449,0.0332,0.0193,0.0193,0.004,0.002,-0.0078,-0.008,-0.0062,-0.0061,-0.0076,-0.0076,-0.0075,-0.0075,-0.0075,0,0.0418,0.046,0.0504,0.0531,0.0595,0.06,0.0656,0.0651,0.066,0.0685,0.0613,0.0604,0.0448,0.0345,0.021,0.0045,0.0048,-0.0074,-0.0107,-0.0036,-0.003,-0.0067,-0.0065,-0.0079,-0.0078,-0.0077,-0.0077,0,0.0445,0.0472,0.0534,0.0588,0.0612,0.0655,0.0723,0.0759,0.0754,0.0781,0.0778,0.0692,0.0552,0.0387,0.0189,0.0075,-0.0084,-0.0145,-0.0056,-0.0082,-0.0182,-0.0176,-0.0263,-0.0264,-0.0265,-0.0266,-0.0267,0,0.0462,0.0497,0.0577,0.0619,0.0649,0.0719,0.077,0.08,0.0837,0.0831,0.0842,0.0732,0.0649,0.0368,0.0181,-0.0081,-0.012,-0.0206,-0.0196,-0.0177,-0.0201,-0.0193,-0.0185,-0.0269,-0.0269,-0.0269,-0.027,0,0.0492,0.0519,0.0569,0.0658,0.0724,0.0806,0.0875,0.0912,0.094,0.0945,0.0897,0.0756,0.0594,0.0371,0.0166,-0.0023,-0.0151,-0.0219,-0.0218,-0.0209,-0.0186,-0.0207,-0.0198,-0.0274,-0.0273,-0.0273,-0.0273,0,0.0509,0.0545,0.0608,0.0688,0.0776,0.0854,0.0898,0.094,0.0977,0.0968,0.0948,0.0777,0.068,0.04,0.0211,0.0024,-0.0027,-0.0089,-0.0096,-0.0094,-0.0016,0.004,-0.0007,0,0,0,0,0,0.052,0.0558,0.0632,0.0715,0.0806,0.0859,0.0949,0.0984,0.1018,0.0994,0.0975,0.0824,0.0547,0.0429,0.0239,0.0172,-0.0071,-0.0059,-0.0148,-0.0296,-0.0291,-0.023,0,0,0,0,0,0,0.0522,0.0588,0.0625,0.0725,0.0786,0.0887,0.0948,0.0975,0.0964,0.0968,0.0828,0.0766,0.0499,0.0653,0.0231,0.0174,0.0088,-0.0183,-0.0188,-0.0298,-0.0294,-0.029,-0.0226,0,0,0,0,0]}]]